Location: Bowden
(51.9167°N, 114.0333°W)
Time: 01:25:20
(UTC+00:00)

Envisat - Pass Details

Date: 05 December 2021
Orbit: 764 x 766 km, 98.2° (Epoch: 28 January)

Event Time Altitude Azimuth Distance (km) Brightness Sun altitude
Rises 01:11:54 0° 217° (SW) 3,224 7.2 -15.2°
Reaches altitude 10° 01:15:16 10° 241° (WSW) 2,304 6.8 -15.7°
Maximum altitude 01:18:03 15° 274° (W) 2,000 6.2 -16.2°
Drops below altitude 10° 01:20:52 10° 308° (NW) 2,314 6.0 -16.6°
Sets 01:24:17 0° 332° (NNW) 3,247 6.4 -17.1°
